Location: Cointrin
(46.2167°N, 6.1167°E)
Time: 10:27:16
(UTC+00:00)

STRAND 1 - Visible Passes

Search period start: 30 November 2023 00:00
Search period end: 10 December 2023 00:00
Orbit: 765 x 779 km, 98.4° (Epoch: 29 November)

Date Brightness Start Highest point End Pass type
(mag) Time Alt. Az. Time Alt. Az. Time Alt. Az.
30 Nov ? 03:49:42 10° ESE 03:53:11 19° ENE 03:56:40 10° NNE visible
30 Nov ? 05:26:44 10° S 05:31:49 68° WSW 05:36:56 10° NNW visible
30 Nov ? 17:38:02 32° ENE 17:38:55 34° E 17:43:31 10° SSE visible
30 Nov ? 19:18:23 33° WNW 19:18:23 33° WNW 19:22:34 10° SW visible
01 Dec ? 04:52:08 10° SSE 04:57:10 61° ENE 05:02:12 10° N visible
01 Dec ? 17:02:58 16° ENE 17:03:55 17° E 17:07:13 10° SE visible
01 Dec ? 18:43:20 65° NW 18:43:33 66° WNW 18:48:34 10° SSW visible
02 Dec ? 04:18:13 10° SE 04:22:41 32° ENE 04:27:10 10° N visible
02 Dec ? 05:57:02 10° SSW 06:01:45 37° W 06:06:28 10° NNW visible
02 Dec ? 18:08:16 58° ENE 18:08:52 63° ESE 18:13:54 10° S visible
02 Dec ? 19:48:37 19° WNW 19:48:37 19° WNW 19:51:10 10° WSW visible
03 Dec ? 03:45:07 10° E 03:48:23 17° ENE 03:51:39 10° NNE visible
03 Dec ? 05:21:50 10° S 05:26:57 75° WSW 05:32:04 10° NNW visible
03 Dec ? 17:33:11 29° ENE 17:34:01 31° E 17:38:30 10° SSE visible
03 Dec ? 19:13:32 36° WNW 19:13:32 36° WNW 19:17:50 10° SW visible
04 Dec ? 04:47:20 10° SSE 04:52:19 56° ENE 04:57:18 10° N visible
04 Dec ? 16:58:06 15° ENE 16:58:59 16° E 17:01:59 10° SE visible
04 Dec ? 18:38:28 71° NW 18:38:41 73° WNW 18:43:44 10° SSW visible
05 Dec ? 04:13:30 10° ESE 04:17:51 29° ENE 04:22:13 10° N visible
05 Dec ? 05:52:03 10° SSW 05:56:51 40° W 06:01:39 10° NNW visible
05 Dec ? 18:03:22 53° ENE 18:03:58 57° E 18:08:58 10° S visible
05 Dec ? 19:43:43 20° WNW 19:43:43 20° WNW 19:46:32 10° WSW visible
06 Dec ? 03:40:34 10° E 03:43:34 16° ENE 03:46:35 10° NNE visible
06 Dec ? 05:16:57 10° SSE 05:22:03 82° WSW 05:27:11 10° NNW visible
06 Dec ? 17:28:16 27° ENE 17:29:06 28° E 17:33:27 10° SSE visible
06 Dec ? 19:08:37 40° WNW 19:08:37 40° WNW 19:13:05 10° SW visible
07 Dec ? 04:42:32 10° SE 04:47:27 51° ENE 04:52:22 10° N visible
07 Dec ? 06:22:55 10° SW 06:26:52 22° W 06:30:50 10° NW visible
07 Dec ? 16:53:09 14° ENE 16:54:02 14° E 16:56:41 10° ESE visible
07 Dec ? 18:33:30 76° NNW 18:33:48 80° WNW 18:38:53 10° SSW visible
07 Dec ? 20:13:51 11° WNW 20:13:51 11° WNW 20:14:18 10° W visible
08 Dec ? 04:08:47 10° ESE 04:13:00 27° ENE 04:17:13 10° N visible
08 Dec ? 05:47:04 10° S 05:51:56 44° W 05:56:49 10° NNW visible
08 Dec ? 17:58:23 48° ENE 17:59:04 52° E 18:04:01 10° S visible
08 Dec ? 19:38:45 22° WNW 19:38:45 22° WNW 19:41:51 10° WSW visible
09 Dec ? 03:36:01 10° E 03:38:44 15° ENE 03:41:28 10° NNE visible
09 Dec ? 05:12:03 10° SSE 05:17:10 89° W 05:22:17 10° NNW visible
09 Dec ? 17:23:16 24° ENE 17:24:09 26° E 17:28:22 10° SSE visible
09 Dec ? 19:03:37 44° WNW 19:03:37 44° WNW 19:08:17 10° SW visible
